FW3213 Weather Reports


time (UTC)temp
C
wind
direction
speed
KPH
gust
KPH
rain 1hr
cm
rain 24hr
cm
rain mn
cm
humidity
%
barometer
mb
20260505035741 1 112 0.0 0.0 0.13 0.41 0.41 91 2101.6
20260505034742 1 112 0.0 0.0 0.13 0.38 0.36 91 2101.4
20260505033838 2 112 0.0 0.0 0.10 0.33 0.33 92 2101.4
20260505032840 2 112 0.0 0.0 0.10 0.30 0.28 90 2100.7
20260505030840 2 112 0.0 0.0 0.10 0.28 0.28 90 2100.5
20260505025840 2 112 0.0 0.0 0.10 0.28 0.28 90 2100.4
20260505024840 2 112 0.0 0.0 0.08 0.25 0.25 90 2100.0
20260505023037 2 292 0.0 0.0 0.03 0.20 0.20 89 2099.8
20260505022041 3 292 0.0 0.0 0.00 0.18 0.18 90 2099.9
20260505020139 3 292 0.0 0.0 0.00 0.18 0.18 90 2099.3
20260505015138 3 292 0.0 0.0 0.00 0.18 0.18 88 2099.5
20260505013140 3 292 0.0 0.0 0.00 0.18 0.18 89 2099.1
20260505011140 3 292 0.0 0.0 0.00 0.18 0.18 88 2099.8
20260505011040 3 292 0.0 0.0 0.00 0.18 0.18 89 2099.7
20260505010040 3 273 3.2 4.8 0.03 0.18 0.18 89 2099.5
20260505005940 3 250 3.2 3.2 0.03 0.18 0.18 88 2099.5
20260505002940 3 112 0.0 0.0 0.18 0.18 0.18 86 2099.4
20260505001138 2 112 0.0 1.6 0.18 0.18 0.18 84 2100.4
20260505001040 2 112 0.0 1.6 0.18 0.18 0.18 83 2100.0
20260505000050 2 112 4.8 6.4 0.15 0.15 0.15 81 2100.4
20260504235138 3 112 6.4 6.4 0.15 0.15 0.13 76 2100.3
20260504235041 3 112 3.2 4.8 0.13 0.13 0.13 76 2100.5
20260504234138 4 337 0.0 1.6 0.08 0.08 0.08 69 2100.5
20260504233137 6 291 3.2 6.4 0.00 0.00 0.00 57 2099.5
20260504232140 7 185 1.6 6.4 0.00 0.00 0.00 50 2099.1
20260504232040 7 189 3.2 6.4 0.00 0.00 0.00 50 2098.7
20260504231037 8 202 3.2 4.8 0.00 0.00 0.00 47 2097.4
20260504230041 8 285 1.6 6.4 0.00 0.00 0.00 44 2096.8
20260504225038 10 126 1.6 4.8 0.00 0.00 0.00 40 2096.8
20260504224040 10 112 3.2 4.8 0.00 0.00 0.00 37 2096.4
20260504223940 10 103 1.6 6.4 0.00 0.00 0.00 37 2096.2
20260504222038 11 112 3.2 4.8 0.00 0.00 0.00 37 2096.8
20260504221039 11 119 3.2 6.4 0.00 0.00 0.00 36 2097.0
20260504220040 11 180 4.8 6.4 0.00 0.00 0.00 36 2096.9
20260504215039 11 126 1.6 4.8 0.00 0.00 0.00 38 2096.9
20260504214040 11 112 1.6 4.8 0.00 0.00 0.00 38 2096.8
20260504212039 12 121 4.8 6.4 0.00 0.00 0.00 37 2097.2
20260504211940 12 153 1.6 6.4 0.00 0.00 0.00 37 2097.0
20260504210937 12 173 1.6 3.2 0.00 0.00 0.00 36 2097.4
20260504205939 12 137 1.6 1.6 0.00 0.00 0.00 35 2097.2
20260504204937 12 112 6.4 9.7 0.00 0.00 0.00 37 2097.4
20260504204037 12 135 3.2 6.4 0.00 0.00 0.00 36 2097.4
20260504203039 12 114 6.4 12.9 0.00 0.00 0.00 37 2097.9
20260504202040 12 213 1.6 6.4 0.00 0.00 0.00 36 2097.9
20260504201138 11 135 0.0 3.2 0.00 0.00 0.00 37 2097.9
20260504201037 11 123 3.2 4.8 0.00 0.00 0.00 37 2097.9
20260504200040 11 234 1.6 4.8 0.00 0.00 0.00 37 2098.2
20260504195138 11 240 3.2 6.4 0.00 0.00 0.00 37 2098.4
20260504194140 11 191 3.2 8.0 0.00 0.00 0.00 36 2098.6
20260504193139 11 253 1.6 6.4 0.00 0.00 0.00 33 2098.4
20260504193039 11 176 3.2 6.4 0.00 0.00 0.00 32 2098.4
20260504192038 11 172 6.4 11.3 0.00 0.00 0.00 30 2098.6
20260504191940 11 295 1.6 4.8 0.00 0.00 0.00 29 2098.6
20260504191038 12 112 4.8 8.0 0.00 0.00 0.00 26 2098.2
20260504190937 13 112 4.8 8.0 0.00 0.00 0.00 25 2098.6
20260504185942 14 240 3.2 6.4 0.00 0.00 0.00 26 2098.4
20260504184940 15 158 4.8 8.0 0.00 0.00 0.00 26 2098.2
20260504183941 15 255 4.8 8.0 0.00 0.00 0.00 26 2098.4
20260504182939 14 111 9.7 12.9 0.00 0.00 0.00 23 2098.6
20260504180938 13 243 3.2 8.0 0.00 0.00 0.00 28 2099.1
20260504175939 12 221 6.4 9.7 0.00 0.00 0.00 29 2099.4
20260504175038 11 292 3.2 6.4 0.00 0.00 0.00 28 2099.5
20260504173137 11 292 6.4 11.3 0.00 0.00 0.00 28 2100.0
20260504172237 11 292 6.4 9.7 0.00 0.00 0.00 29 2100.7
20260504171237 11 290 6.4 12.9 0.00 0.00 0.00 29 2100.3
20260504170238 12 259 4.8 9.7 0.00 0.00 0.00 28 2100.3
20260504170137 12 272 6.4 11.3 0.00 0.00 0.00 28 2100.5
20260504160239 10 266 9.7 16.1 0.00 0.00 0.00 36 2101.6
20260504140238 6 270 3.2 4.8 0.00 0.00 0.00 42 2102.6
20260504120239 0 337 0.0 3.2 0.00 0.00 0.00 57 2101.5
20260504110240 0 90 0.0 0.0 0.00 0.00 0.00 55 2101.8
20260504100539 1 337 0.0 0.0 0.00 0.00 0.00 52 2102.3
20260504100438 1 337 0.0 0.0 0.00 0.00 0.00 51 2102.3
20260504081437 0 330 1.6 3.2 0.00 0.00 0.00 55 2103.8
20260504080537 0 329 3.2 6.4 0.00 0.00 0.00 57 2103.6
20260504050532 5 337 0.0 0.0 0.00 0.00 0.00 42 2106.3
20260504050430 5 337 0.0 0.0 0.00 0.00 0.00 41 2106.4
20260504045432 5 337 0.0 1.6 0.00 0.00 0.00 40 2106.5
20260504044432 5 315 3.2 3.2 0.00 0.00 0.00 39 2106.5
20260504043432 5 315 3.2 4.8 0.00 0.00 0.00 39 2106.8
20260504042431 6 315 3.2 4.8 0.00 0.00 0.00 41 2106.9
20260504042332 6 315 3.2 4.8 0.00 0.00 0.00 40 2107.0
20260504041430 6 337 3.2 4.8 0.00 0.00 0.00 39 2107.3